TimeCST,TemperatureF,Dew PointF,Humidity,Sea Level PressureIn,VisibilityMPH,Wind Direction,Wind SpeedMPH,Gust SpeedMPH,PrecipitationIn,Events,Conditions,WindDirDegrees,DateUTC
12:12 AM,8.6,-5.8,52,29.66,10.0,NW,3.5,-,N/A,,Overcast,320,2013-01-31 06:12:00
12:32 AM,8.6,-5.8,52,29.67,10.0,Calm,Calm,-,N/A,,Overcast,0,2013-01-31 06:32:00
12:52 AM,8.6,-5.8,52,29.67,10.0,Calm,Calm,-,N/A,,Overcast,0,2013-01-31 06:52:00
1:12 AM,8.6,-4.0,57,29.67,10.0,NNW,6.9,-,N/A,,Overcast,340,2013-01-31 07:12:00
1:31 AM,8.6,-4.0,57,29.68,10.0,NW,9.2,-,N/A,,Overcast,320,2013-01-31 07:31:00
1:51 AM,6.8,-5.8,56,29.68,10.0,Calm,Calm,-,N/A,,Overcast,0,2013-01-31 07:51:00
2:12 AM,6.8,-4.0,61,29.69,7.0,Calm,Calm,-,N/A,Snow,Light Snow,0,2013-01-31 08:12:00
2:32 AM,6.8,-4.0,61,29.69,4.0,Calm,Calm,-,N/A,Snow,Light Snow,0,2013-01-31 08:32:00
2:52 AM,5.0,-4.0,66,29.70,7.0,Calm,Calm,-,N/A,,Overcast,0,2013-01-31 08:52:00
3:12 AM,5.0,-5.8,61,29.70,5.0,NW,10.4,16.1,N/A,,Haze,310,2013-01-31 09:12:00
3:31 AM,5.0,-5.8,61,29.71,5.0,NW,9.2,-,N/A,,Haze,310,2013-01-31 09:31:00
3:51 AM,5.0,-5.8,61,29.71,7.0,NW,9.2,-,N/A,,Overcast,310,2013-01-31 09:51:00
4:12 AM,5.0,-7.6,56,29.72,10.0,NW,11.5,16.1,N/A,,Overcast,310,2013-01-31 10:12:00
4:32 AM,3.2,-7.6,61,29.72,10.0,WNW,9.2,16.1,N/A,,Overcast,300,2013-01-31 10:32:00
4:52 AM,3.2,-7.6,61,29.73,7.0,NW,11.5,16.1,N/A,,Overcast,320,2013-01-31 10:52:00
5:12 AM,3.2,-7.6,61,29.73,7.0,NW,6.9,18.4,N/A,,Overcast,320,2013-01-31 11:12:00
5:32 AM,3.2,-7.6,61,29.74,7.0,NW,10.4,-,N/A,,Overcast,310,2013-01-31 11:32:00
5:51 AM,3.2,-7.6,61,29.74,4.0,Calm,Calm,-,N/A,,Haze,0,2013-01-31 11:51:00
6:12 AM,1.4,-7.6,66,29.76,4.0,NW,10.4,-,N/A,,Haze,310,2013-01-31 12:12:00
6:32 AM,1.4,-9.4,61,29.77,7.0,NW,6.9,-,N/A,,Overcast,310,2013-01-31 12:32:00
6:52 AM,1.4,-9.4,61,29.77,7.0,NW,8.1,16.1,N/A,,Overcast,310,2013-01-31 12:52:00
7:12 AM,1.4,-9.4,61,29.78,10.0,Calm,Calm,-,N/A,,Overcast,0,2013-01-31 13:12:00
7:32 AM,1.4,-9.4,61,29.79,10.0,NW,4.6,-,N/A,,Overcast,310,2013-01-31 13:32:00
7:52 AM,1.4,-9.4,61,29.80,4.0,NW,10.4,-,N/A,,Haze,310,2013-01-31 13:52:00
8:12 AM,1.4,-11.2,56,29.82,3.0,WNW,11.5,18.4,N/A,,Haze,300,2013-01-31 14:12:00
8:32 AM,1.4,-11.2,56,29.83,7.0,WNW,8.1,-,N/A,,Overcast,300,2013-01-31 14:32:00
8:51 AM,-0.4,-13.0,55,29.84,7.0,NW,6.9,-,N/A,,Overcast,320,2013-01-31 14:51:00
9:17 AM,-0.4,-13.0,55,29.85,10.0,Calm,Calm,-,N/A,,Scattered Clouds,0,2013-01-31 15:17:00
9:32 AM,1.4,-13.0,51,29.86,10.0,NW,11.5,16.1,N/A,,Mostly Cloudy,310,2013-01-31 15:32:00
9:52 AM,1.4,-13.0,51,29.87,10.0,NW,13.8,19.6,N/A,,Scattered Clouds,320,2013-01-31 15:52:00
10:11 AM,1.4,-13.0,51,29.88,10.0,NW,10.4,16.1,N/A,,Scattered Clouds,320,2013-01-31 16:11:00
10:32 AM,1.4,-13.0,51,29.89,10.0,Calm,Calm,-,N/A,,Scattered Clouds,0,2013-01-31 16:32:00
10:52 AM,3.2,-13.0,47,29.90,10.0,Calm,Calm,-,N/A,,Scattered Clouds,0,2013-01-31 16:52:00
11:12 AM,3.2,-13.0,47,29.90,7.0,WNW,11.5,18.4,N/A,,Mostly Cloudy,300,2013-01-31 17:12:00
11:32 AM,5.0,-13.0,43,29.91,5.0,NW,13.8,19.6,N/A,,Haze,310,2013-01-31 17:32:00
11:52 AM,3.2,-13.0,47,29.92,4.0,NNW,10.4,20.7,N/A,,Haze,330,2013-01-31 17:52:00
12:12 PM,5.0,-13.0,43,29.92,7.0,NW,10.4,19.6,N/A,,Mostly Cloudy,320,2013-01-31 18:12:00
12:31 PM,5.0,-13.0,43,29.93,4.0,NW,12.7,19.6,N/A,,Haze,320,2013-01-31 18:31:00
12:52 PM,5.0,-13.0,43,29.93,4.0,NW,9.2,19.6,N/A,,Haze,320,2013-01-31 18:52:00
1:12 PM,5.0,-13.0,43,29.93,5.0,NW,13.8,20.7,N/A,,Haze,320,2013-01-31 19:12:00
1:32 PM,5.0,-13.0,43,29.94,7.0,WNW,12.7,18.4,N/A,,Overcast,290,2013-01-31 19:32:00
1:52 PM,5.0,-13.0,43,29.94,10.0,NW,5.8,19.6,N/A,,Mostly Cloudy,310,2013-01-31 19:52:00
2:12 PM,5.0,-13.0,43,29.95,10.0,WNW,9.2,19.6,N/A,,Scattered Clouds,290,2013-01-31 20:12:00
2:31 PM,5.0,-13.0,43,29.95,10.0,NNW,16.1,20.7,N/A,,Scattered Clouds,330,2013-01-31 20:31:00
2:52 PM,5.0,-13.0,43,29.96,10.0,WNW,12.7,20.7,N/A,,Overcast,300,2013-01-31 20:52:00
3:12 PM,5.0,-13.0,43,29.97,10.0,WNW,10.4,18.4,N/A,,Overcast,300,2013-01-31 21:12:00
3:32 PM,5.0,-13.0,43,29.98,10.0,WNW,12.7,19.6,N/A,,Scattered Clouds,300,2013-01-31 21:32:00
3:52 PM,5.0,-13.0,43,29.99,10.0,NW,10.4,18.4,N/A,,Mostly Cloudy,310,2013-01-31 21:52:00
4:11 PM,5.0,-13.0,43,29.99,10.0,Calm,Calm,-,N/A,,Scattered Clouds,0,2013-01-31 22:11:00
4:32 PM,3.2,-14.8,43,30.01,10.0,NW,16.1,21.9,N/A,,Scattered Clouds,310,2013-01-31 22:32:00
4:51 PM,3.2,-14.8,43,30.01,10.0,WNW,10.4,17.3,N/A,,Scattered Clouds,300,2013-01-31 22:51:00
5:12 PM,3.2,-14.8,43,30.02,10.0,NW,12.7,18.4,N/A,,Mostly Cloudy,320,2013-01-31 23:12:00
5:32 PM,1.4,-14.8,47,30.03,10.0,Calm,Calm,-,N/A,,Scattered Clouds,0,2013-01-31 23:32:00
5:52 PM,1.4,-13.0,51,30.04,10.0,WNW,12.7,17.3,N/A,,Mostly Cloudy,300,2013-01-31 23:52:00
6:11 PM,1.4,-14.8,47,30.05,10.0,WNW,8.1,-,N/A,,Overcast,300,2013-02-01 00:11:00
6:32 PM,-0.4,-14.8,51,30.05,10.0,NW,4.6,9.2,N/A,,Scattered Clouds,310,2013-02-01 00:32:00
6:52 PM,-0.4,-14.8,51,30.06,10.0,WNW,12.7,19.6,N/A,,Scattered Clouds,290,2013-02-01 00:52:00
7:12 PM,-0.4,-14.8,51,30.07,10.0,WNW,8.1,16.1,N/A,,Scattered Clouds,290,2013-02-01 01:12:00
7:32 PM,-2.2,-16.6,50,30.08,10.0,NW,9.2,16.1,N/A,,Scattered Clouds,310,2013-02-01 01:32:00
7:52 PM,-4.0,-16.6,55,30.09,10.0,NW,8.1,-,N/A,,Clear,310,2013-02-01 01:52:00
8:12 PM,-4.0,-18.4,50,30.09,10.0,NW,10.4,-,N/A,,Clear,310,2013-02-01 02:12:00
8:32 PM,-5.8,-18.4,55,30.10,10.0,NW,12.7,19.6,N/A,,Clear,320,2013-02-01 02:32:00
8:52 PM,-5.8,-18.4,55,30.11,10.0,WNW,6.9,-,N/A,,Clear,290,2013-02-01 02:52:00
9:12 PM,-5.8,-20.2,50,30.11,10.0,WNW,8.1,-,N/A,,Scattered Clouds,290,2013-02-01 03:12:00
9:32 PM,-7.6,-22.0,50,30.13,10.0,WNW,6.9,-,N/A,,Clear,290,2013-02-01 03:32:00
9:52 PM,-7.6,-22.0,50,30.13,10.0,WNW,9.2,-,N/A,,Scattered Clouds,300,2013-02-01 03:52:00
10:12 PM,-7.6,-23.8,45,30.13,10.0,WNW,5.8,-,N/A,,Scattered Clouds,300,2013-02-01 04:12:00
10:32 PM,-9.4,-23.8,49,30.13,10.0,NW,5.8,-,N/A,,Scattered Clouds,320,2013-02-01 04:32:00
10:52 PM,-9.4,-23.8,49,30.14,10.0,NW,9.2,-,N/A,,Scattered Clouds,310,2013-02-01 04:52:00
11:12 PM,-9.4,-25.6,45,30.14,10.0,Calm,Calm,-,N/A,,Scattered Clouds,0,2013-02-01 05:12:00
11:32 PM,-11.2,-25.6,49,30.15,10.0,NW,6.9,-,N/A,,Scattered Clouds,310,2013-02-01 05:32:00
11:52 PM,-11.2,-25.6,49,30.16,10.0,WNW,9.2,-,N/A,,Clear,300,2013-02-01 05:52:00